Wind_Speed
32 29 26 19 14 15 17 16 17 19 22 23 21 17 15 15 16 16 16 16 16 16 16 15 15 15 16 17 17 18 20 21 21 22 22 22 24 25 26 26 27 28 28 29
32 28 24 19 15 16 18 18 18 21 26 25 23 21 18 18 18 17 18 19 19 19 20 20 20 20 21 21 22 22 23 23 24 24 25 26 27 28 29 28 29 30 30 32
33 28 26 23 20 21 20 20 21 23 27 25 24 21 21 21 21 20 19 19 20 21 23 23 24 25 25 25 26 27 28 28 28 28 29 30 30 31 31 31 31 32 34 34
33 30 31 26 25 25 23 23 25 27 27 26 25 24 24 23 22 21 21 22 22 22 23 24 25 27 28 29 30 32 32 32 32 32 33 34 34 35 34 34 34 35 35 36
33 33 31 28 28 27 25 24 26 28 26 25 25 24 23 23 23 22 22 23 23 23 24 25 26 28 30 32 34 35 35 36 37 36 37 37 38 38 39 39 38 38 39 40
31 32 29 32 32 28 27 24 26 27 25 24 24 23 22 22 22 23 23 23 24 25 26 26 27 29 30 33 34 35 37 38 38 38 38 39 39 39 40 40 40 40 42 43
28 29 30 32 30 27 26 25 23 22 22 23 23 22 21 22 23 24 24 25 25 26 27 27 28 30 31 33 35 36 37 38 38 38 38 37 36 38 39 40 41 42 43 44
30 32 35 31 27 26 24 24 23 24 24 23 23 23 23 23 24 25 25 26 27 27 28 28 29 30 32 34 35 36 36 36 36 36 36 36 37 37 38 40 41 43 44 46
34 35 35 32 31 27 23 24 25 26 25 24 25 24 24 25 25 26 26 27 28 29 30 30 31 32 32 33 32 33 33 33 33 34 35 36 36 37 39 41 43 45 47 49
28 31 31 32 28 23 24 24 23 25 25 25 25 25 25 26 27 28 28 29 30 30 31 32 33 32 32 32 32 32 33 33 34 35 36 37 39 41 43 45 47 49 51 53
23 24 23 23 24 23 23 23 24 25 25 24 25 26 27 28 28 29 29 29 30 31 32 32 33 33 33 33 33 33 34 35 36 37 38 40 42 44 46 48 50 53 55 58
18 18 19 18 18 19 20 21 23 23 24 25 25 26 27 27 28 29 30 30 31 31 32 32 32 32 33 33 34 35 36 37 39 41 43 44 46 48 50 53 55 57 59 62
16 18 19 19 18 18 18 19 21 22 23 24 25 26 27 27 28 29 29 30 31 31 31 32 32 32 33 34 35 37 39 40 42 44 46 48 51 53 55 57 60 62 64 65
16 18 19 18 18 19 20 20 21 23 24 25 25 26 27 28 29 29 30 31 32 33 33 33 33 33 34 35 37 38 40 43 45 47 49 52 54 57 59 61 62 64 65 65
15 16 17 18 18 19 20 21 22 23 24 25 26 27 28 29 30 30 31 32 32 33 34 35 35 35 35 37 39 41 44 46 48 50 53 55 57 58 60 61 61 61 61 61
15 16 17 18 19 19 20 22 23 24 25 26 27 28 29 30 30 31 32 32 33 34 35 35 36 38 39 41 43 45 48 50 51 53 54 56 57 58 58 58 58 57 56 55
17 17 18 19 20 21 22 23 24 25 26 27 28 29 30 30 31 32 33 34 35 36 36 37 39 41 42 44 46 48 50 52 53 54 55 55 56 55 55 54 52 50 49 48
18 19 19 20 21 21 23 24 25 25 27 28 29 30 31 31 32 33 34 35 35 36 37 39 41 43 44 46 48 50 51 52 52 52 53 52 52 51 49 47 45 44 43 41
19 20 21 21 22 23 24 25 26 28 28 28 29 30 32 33 34 34 36 37 38 39 41 42 44 46 47 49 49 50 50 50 50 49 48 48 46 45 43 41 40 39 37 36
21 21 22 23 24 25 26 27 28 28 29 30 31 32 33 34 35 37 38 39 41 42 43 44 46 47 48 49 49 49 49 47 46 45 44 43 42 40 39 37 36 34 33 31
22 23 24 24 25 25 27 28 28 29 29 30 32 33 34 35 36 38 39 40 42 43 45 46 46 47 47 47 47 46 44 43 42 41 40 39 38 36 34 33 31 29 28 26
23 24 25 26 26 27 28 28 28 30 31 32 34 36 37 38 39 40 41 41 42 43 44 45 45 44 44 43 42 41 40 39 38 37 37 36 34 32 30 29 27 25 24 23
24 24 25 27 28 29 30 30 31 32 33 35 36 37 39 40 41 42 41 42 42 43 43 43 42 41 40 39 39 38 37 36 35 34 33 32 30 28 26 25 23 22 21 20
24 25 27 28 30 31 31 32 33 35 36 37 38 39 40 41 41 40 40 40 40 40 39 39 39 38 37 37 36 35 34 33 32 30 29 28 26 24 23 21 20 19 18 17
27 28 29 30 31 32 34 35 36 36 37 38 39 38 39 39 39 38 37 37 37 37 36 36 36 35 34 34 33 32 30 29 28 27 25 24 22 21 20 18 17 17 17 17
29 30 31 32 33 34 35 36 37 37 38 38 38 37 37 36 36 34 34 34 34 34 34 33 32 32 31 30 29 28 27 26 25 23 22 21 20 19 17 16 16 16 16 16
31 32 33 33 34 35 35 36 37 37 36 36 35 34 34 33 32 32 32 32 31 31 31 30 29 28 27 27 26 25 24 23 22 21 20 20 18 17 17 17 17 17 16 17
Wind_Direction
240 245 257 262 250 244 245 250 256 269 272 275 279 287 293 293 289 284 280 277 276 279 278 275 276 274 272 270 270 269 268 269 270 270 270 272 272 273 274 275 276 276 276 278
235 239 247 251 254 251 250 254 257 259 265 273 277 281 288 289 287 283 280 277 275 275 275 277 277 276 275 274 274 273 272 273 273 275 275 277 276 275 274 274 276 278 278 279
227 226 234 238 239 243 247 252 254 255 261 269 273 280 287 286 286 284 281 280 279 275 275 275 276 277 277 276 277 276 276 275 276 275 276 276 276 275 273 274 277 278 278 280
223 221 228 230 235 239 239 246 252 257 263 270 277 279 281 282 283 284 282 280 280 279 279 277 277 277 278 279 278 277 276 276 276 277 277 278 279 278 275 276 277 279 280 282
219 225 231 231 231 232 237 241 251 260 267 272 273 276 279 281 282 283 283 282 281 281 281 279 279 280 281 281 281 281 279 279 279 278 276 277 278 278 276 276 278 280 282 284
225 224 233 236 236 235 240 243 251 261 266 270 273 277 279 279 281 283 284 284 284 284 283 283 282 282 283 283 283 284 281 281 279 279 279 278 278 280 281 282 282 284 285 287
221 224 232 239 242 244 246 250 254 263 269 273 276 279 278 279 281 283 286 286 286 285 284 285 286 286 287 287 286 285 284 281 280 281 282 282 281 283 284 285 285 287 288 290
227 229 233 237 239 244 245 247 255 265 270 274 276 278 280 281 284 285 287 288 288 287 286 287 287 288 289 289 287 285 285 285 284 284 286 287 287 287 287 288 289 290 290 291
229 232 236 236 242 243 247 251 258 263 269 272 274 277 279 282 285 287 289 288 289 288 286 287 288 289 290 290 291 291 290 290 290 291 290 290 290 290 290 290 291 292 292 292
232 236 240 240 243 244 249 255 259 264 267 270 272 275 279 283 285 287 288 288 287 288 288 288 289 289 289 289 290 291 292 292 293 294 293 292 292 292 292 292 293 293 293 293
235 238 241 243 246 248 256 260 263 265 267 271 274 277 281 284 285 286 286 286 286 288 289 290 290 290 289 289 290 291 292 294 294 294 293 292 292 293 293 293 294 294 294 294
245 245 243 249 251 249 255 260 262 265 269 273 277 280 282 284 285 286 286 286 287 289 290 291 292 291 290 290 291 292 293 293 294 295 295 295 296 296 296 297 297 297 296 296
254 254 259 261 262 261 262 265 267 269 273 276 279 281 283 284 284 287 287 288 290 292 292 292 293 292 292 292 293 294 294 294 295 296 297 298 298 299 299 299 298 298 297 297
261 261 263 264 267 268 269 271 273 276 278 279 280 282 284 284 286 288 289 290 291 292 293 293 292 292 292 294 295 296 297 297 297 298 299 300 300 300 300 300 300 299 299 299
263 262 266 269 271 272 274 277 277 278 279 280 281 283 284 285 287 288 289 290 292 293 295 294 294 294 295 296 297 298 299 300 300 301 302 302 302 302 302 302 301 301 301 301
270 272 274 276 276 277 277 278 279 279 280 281 283 284 286 287 288 289 290 290 292 294 295 296 297 298 298 298 299 300 301 302 303 304 304 304 304 304 304 304 304 303 303 303
272 274 276 277 278 278 279 280 281 282 283 284 286 288 288 289 291 291 290 291 292 293 296 298 299 300 301 302 303 304 304 305 306 306 306 306 306 306 306 306 306 306 305 306
272 274 276 277 279 281 281 283 284 284 285 287 288 289 291 292 293 293 294 294 295 296 298 300 302 303 304 304 305 305 306 306 306 306 306 306 306 306 307 307 307 307 308 308
272 274 277 280 282 283 284 285 286 286 287 289 290 292 294 295 295 296 297 298 299 299 301 302 304 304 305 306 306 306 306 306 306 307 307 308 308 308 308 308 308 309 309 310
274 277 280 282 282 283 283 284 286 287 288 290 291 292 293 294 295 298 299 300 300 301 302 303 305 305 306 306 306 307 307 307 307 307 308 309 309 309 309 308 309 310 311 312
277 280 282 283 283 283 283 284 285 288 290 292 294 295 295 296 298 300 301 301 302 302 303 304 305 305 305 306 306 306 307 307 307 308 308 309 309 309 309 309 310 312 313 314
278 280 281 282 282 282 283 285 288 291 293 295 296 296 297 297 299 300 301 302 302 303 303 304 304 304 305 306 306 306 307 308 308 308 309 309 309 309 309 310 310 312 314 316
278 280 281 282 284 286 287 288 290 292 293 295 296 296 297 298 300 302 302 302 302 303 304 304 305 305 305 306 306 306 307 308 308 309 309 310 309 309 309 309 310 312 314 317
278 279 281 283 284 285 287 289 292 293 295 296 297 298 299 300 301 302 302 302 302 303 304 305 306 306 306 306 306 307 308 308 308 309 310 311 311 311 311 310 311 313 316 318
278 280 281 284 286 287 289 292 293 295 297 298 299 300 301 302 303 303 302 301 301 303 305 306 306 307 307 308 308 309 309 309 310 310 311 312 313 313 312 312 313 315 315 317
280 282 284 286 289 291 293 294 296 298 299 300 301 301 302 302 302 301 300 301 303 305 306 306 306 307 308 309 310 311 311 311 312 312 312 313 313 313 311 311 313 314 315 316
281 283 285 287 289 291 292 294 296 298 299 300 301 301 302 302 302 302 302 303 304 305 306 308 309 310 310 311 312 312 312 312 312 312 313 314 314 313 311 311 311 312 313 315
Height
5837 5838 5838 5838 5839 5840 5841 5842 5843 5842 5838 5836 5837 5836 5837 5839 5839 5839 5839 5839 5839 5839 5839 5838 5839 5839 5839 5839 5840 5840 5839 5838 5839 5840 5840 5840 5840 5839 5839 5839 5838 5837 5837 5836
5828 5832 5832 5833 5834 5836 5837 5838 5838 5837 5834 5833 5831 5833 5834 5835 5835 5836 5836 5836 5836 5835 5835 5835 5836 5836 5835 5835 5835 5834 5833 5833 5832 5832 5833 5833 5832 5832 5831 5830 5829 5827 5828 5827
5818 5825 5827 5827 5831 5832 5832 5832 5832 5831 5830 5829 5829 5829 5830 5831 5831 5831 5832 5832 5832 5831 5831 5830 5831 5830 5829 5830 5830 5829 5828 5828 5827 5826 5826 5824 5824 5823 5822 5821 5820 5819 5818 5817
5810 5816 5818 5823 5824 5824 5824 5825 5825 5823 5823 5824 5825 5826 5826 5826 5827 5826 5826 5826 5826 5826 5826 5825 5825 5825 5824 5823 5823 5823 5822 5821 5820 5819 5818 5816 5815 5814 5813 5812 5810 5809 5808 5807
5802 5807 5809 5813 5813 5815 5817 5818 5818 5817 5818 5819 5820 5821 5821 5821 5821 5821 5820 5820 5820 5820 5820 5819 5819 5818 5817 5816 5815 5814 5813 5812 5811 5810 5809 5808 5807 5805 5803 5801 5800 5798 5798 5796
5794 5799 5802 5806 5806 5806 5810 5810 5809 5811 5812 5813 5814 5815 5816 5815 5815 5814 5814 5814 5814 5814 5813 5812 5812 5811 5810 5808 5807 5805 5804 5803 5801 5800 5799 5798 5797 5795 5793 5792 5790 5788 5787 5784
5787 5792 5794 5795 5797 5801 5804 5804 5803 5804 5805 5807 5808 5810 5810 5809 5809 5809 5808 5808 5807 5807 5806 5805 5804 5803 5802 5800 5798 5796 5795 5794 5792 5791 5789 5787 5786 5784 5783 5782 5780 5778 5775 5773
5781 5785 5789 5788 5790 5794 5794 5795 5798 5799 5801 5802 5803 5802 5803 5803 5803 5802 5802 5801 5800 5800 5799 5798 5797 5796 5794 5792 5790 5788 5786 5784 5782 5781 5779 5778 5776 5774 5772 5770 5768 5766 5763 5761
5776 5780 5781 5781 5783 5785 5786 5789 5791 5793 5795 5796 5796 5796 5796 5796 5796 5796 5795 5795 5794 5792 5791 5790 5789 5787 5785 5783 5781 5779 5777 5775 5773 5771 5769 5767 5765 5764 5761 5759 5756 5753 5750 5747
5767 5771 5773 5776 5777 5777 5781 5782 5784 5786 5788 5789 5790 5790 5790 5790 5789 5789 5788 5787 5786 5785 5783 5782 5780 5778 5776 5774 5773 5771 5769 5766 5764 5762 5760 5757 5755 5753 5750 5747 5743 5739 5736 5732
5762 5765 5767 5770 5771 5773 5776 5777 5778 5780 5781 5783 5783 5783 5783 5783 5782 5782 5780 5779 5778 5777 5775 5773 5771 5769 5768 5766 5764 5762 5759 5757 5754 5752 5750 5747 5744 5741 5737 5733 5729 5724 5720 5715
5758 5760 5762 5763 5766 5768 5771 5772 5773 5774 5775 5776 5776 5776 5776 5776 5775 5774 5773 5771 5770 5768 5766 5764 5762 5760 5758 5756 5754 5752 5749 5747 5744 5741 5738 5734 5731 5727 5722 5718 5713 5707 5702 5697
5755 5756 5759 5760 5762 5764 5766 5767 5768 5768 5769 5769 5769 5769 5769 5768 5767 5766 5765 5763 5762 5760 5758 5756 5754 5752 5749 5747 5744 5742 5739 5736 5732 5729 5725 5721 5716 5712 5707 5702 5695 5689 5683 5677
5752 5754 5755 5756 5758 5759 5760 5761 5761 5762 5762 5763 5763 5762 5761 5761 5759 5758 5756 5755 5753 5751 5749 5747 5744 5742 5740 5737 5734 5731 5728 5724 5720 5716 5711 5706 5701 5696 5690 5684 5678 5671 5664 5656
5748 5750 5751 5752 5753 5754 5755 5755 5755 5756 5756 5756 5755 5755 5754 5753 5751 5750 5748 5746 5744 5742 5740 5737 5734 5732 5729 5726 5723 5720 5716 5712 5707 5702 5697 5691 5685 5679 5673 5666 5659 5652 5645 5638
5744 5745 5746 5747 5748 5748 5749 5749 5750 5749 5749 5749 5748 5747 5746 5744 5743 5741 5739 5737 5735 5733 5730 5727 5724 5721 5718 5715 5711 5707 5703 5698 5693 5687 5682 5676 5669 5663 5656 5649 5642 5635 5628 5622
5740 5741 5742 5742 5743 5743 5743 5743 5743 5743 5742 5741 5740 5739 5738 5736 5734 5733 5730 5728 5726 5723 5720 5717 5714 5711 5707 5703 5699 5694 5689 5684 5678 5672 5666 5659 5653 5646 5640 5633 5626 5620 5614 5607
5736 5737 5737 5738 5738 5738 5737 5737 5736 5736 5735 5734 5732 5731 5729 5728 5726 5723 5721 5718 5715 5713 5710 5707 5703 5699 5695 5691 5686 5680 5675 5669 5663 5657 5651 5645 5638 5632 5626 5620 5614 5608 5602 5596
5731 5731 5732 5732 5732 5731 5731 5730 5729 5729 5727 5726 5724 5722 5720 5719 5716 5714 5711 5709 5705 5702 5699 5695 5691 5687 5682 5677 5672 5666 5661 5655 5649 5643 5637 5631 5625 5619 5614 5608 5603 5597 5592 5587
5726 5726 5726 5726 5725 5725 5724 5723 5722 5721 5719 5718 5716 5714 5712 5710 5707 5705 5702 5698 5695 5691 5687 5683 5679 5674 5669 5664 5658 5653 5647 5642 5636 5630 5625 5619 5614 5609 5604 5599 5594 5589 5584 5579
5720 5719 5719 5719 5718 5717 5716 5715 5714 5713 5711 5709 5708 5706 5703 5701 5698 5695 5691 5688 5684 5679 5675 5671 5666 5661 5656 5651 5645 5640 5635 5630 5624 5619 5614 5609 5604 5599 5595 5590 5586 5581 5577 5572
5713 5713 5712 5711 5711 5710 5709 5707 5706 5704 5703 5701 5698 5696 5693 5690 5687 5684 5680 5676 5672 5667 5663 5659 5654 5649 5644 5639 5634 5629 5624 5619 5614 5610 5605 5600 5595 5591 5587 5583 5579 5575 5571 5567
5706 5706 5705 5704 5703 5702 5700 5699 5697 5695 5693 5691 5689 5686 5682 5679 5676 5672 5669 5664 5660 5655 5651 5646 5642 5637 5632 5628 5623 5618 5614 5610 5605 5601 5596 5592 5587 5583 5580 5576 5573 5569 5566 5562
5699 5698 5697 5696 5695 5693 5692 5690 5688 5686 5684 5681 5678 5675 5672 5668 5665 5661 5657 5652 5648 5644 5640 5635 5631 5627 5622 5618 5614 5609 5605 5601 5597 5592 5588 5584 5580 5577 5574 5570 5567 5564 5561 5558
5691 5690 5689 5688 5686 5685 5683 5681 5678 5676 5673 5670 5668 5664 5661 5657 5653 5649 5645 5642 5638 5634 5630 5626 5621 5617 5613 5609 5605 5601 5597 5593 5589 5585 5582 5578 5575 5572 5569 5566 5563 5561 5558 5555
5683 5682 5680 5679 5677 5675 5673 5670 5668 5666 5663 5660 5656 5653 5650 5647 5643 5639 5636 5632 5628 5624 5621 5617 5613 5609 5605 5602 5597 5594 5590 5586 5583 5580 5576 5573 5570 5567 5564 5562 5559 5557 5554 5552
5674 5673 5671 5670 5668 5666 5663 5661 5659 5656 5653 5650 5647 5643 5640 5637 5633 5630 5627 5624 5620 5616 5613 5609 5606 5602 5598 5595 5591 5588 5584 5581 5578 5575 5572 5569 5566 5563 5561 5558 5556 5553 5551 5548